Time,TemperatureF,DewpointF,PressureIn,WindDirection,WindDirectionDegrees,WindSpeedMPH,WindSpeedGustMPH,Humidity,HourlyPrecipIn,Conditions,Clouds,dailyrainin,SolarRadiationWatts/m^2,SoftwareType,DateUTC
2013-02-17 00:21:00,37.0,23.0,-100.00,WNW,282,4.0,13.0,56,0.00,,,0.00,0.000000,,2013-02-17 07:21:00,
2013-02-17 00:31:00,37.0,23.0,-100.00,WNW,282,4.0,13.0,56,0.00,,,0.00,0.000000,,2013-02-17 07:31:00,
2013-02-17 00:41:00,37.0,23.0,-100.00,WNW,282,4.0,13.0,56,0.00,,,0.00,0.000000,,2013-02-17 07:41:00,
2013-02-17 00:51:00,37.0,23.0,-100.00,WNW,282,4.0,13.0,56,0.00,,,0.00,0.000000,,2013-02-17 07:51:00,
2013-02-17 01:21:00,36.0,23.0,-100.00,WNW,288,4.0,9.0,58,0.00,,,0.00,0.000000,,2013-02-17 08:21:00,
2013-02-17 01:31:00,36.0,23.0,-100.00,WNW,288,4.0,9.0,58,0.00,,,0.00,0.000000,,2013-02-17 08:31:00,
2013-02-17 01:42:00,36.0,23.0,-100.00,WNW,288,4.0,9.0,58,0.00,,,0.00,0.000000,,2013-02-17 08:42:00,
2013-02-17 01:52:00,36.0,23.0,-100.00,WNW,288,4.0,9.0,58,0.00,,,0.00,0.000000,,2013-02-17 08:52:00,
2013-02-17 02:21:00,33.0,21.0,-100.00,NNW,331,0.0,5.0,62,0.00,,,0.00,0.000000,,2013-02-17 09:21:00,
2013-02-17 02:31:00,33.0,21.0,-100.00,NNW,331,0.0,5.0,62,0.00,,,0.00,0.000000,,2013-02-17 09:31:00,
2013-02-17 02:42:00,33.0,21.0,-100.00,NNW,331,0.0,5.0,62,0.00,,,0.00,0.000000,,2013-02-17 09:42:00,
2013-02-17 02:51:00,33.0,21.0,-100.00,NNW,331,0.0,5.0,62,0.00,,,0.00,0.000000,,2013-02-17 09:51:00,
2013-02-17 03:21:00,31.0,21.0,-100.00,NW,304,2.0,9.0,67,0.00,,,0.00,0.000000,,2013-02-17 10:21:00,
2013-02-17 03:31:00,31.0,21.0,-100.00,NW,304,2.0,9.0,67,0.00,,,0.00,0.000000,,2013-02-17 10:31:00,
2013-02-17 03:41:00,31.0,21.0,-100.00,NW,304,2.0,9.0,67,0.00,,,0.00,0.000000,,2013-02-17 10:41:00,
2013-02-17 03:52:00,31.0,21.0,-100.00,NW,304,2.0,9.0,67,0.00,,,0.00,0.000000,,2013-02-17 10:52:00,
2013-02-17 04:21:00,36.0,21.0,-100.00,West,275,5.0,10.0,55,0.00,,,0.00,0.000000,,2013-02-17 11:21:00,
2013-02-17 04:32:00,36.0,21.0,-100.00,West,275,5.0,10.0,55,0.00,,,0.00,0.000000,,2013-02-17 11:32:00,
2013-02-17 04:42:00,36.0,21.0,-100.00,West,275,5.0,10.0,55,0.00,,,0.00,0.000000,,2013-02-17 11:42:00,
2013-02-17 04:52:00,36.0,21.0,-100.00,West,275,5.0,10.0,55,0.00,,,0.00,0.000000,,2013-02-17 11:52:00,
2013-02-17 05:22:00,33.0,20.0,-100.00,NW,310,2.0,9.0,59,0.00,,,0.00,0.000000,,2013-02-17 12:22:00,
2013-02-17 05:32:00,33.0,20.0,-100.00,NW,310,2.0,9.0,59,0.00,,,0.00,0.000000,,2013-02-17 12:32:00,
2013-02-17 05:42:00,33.0,20.0,-100.00,NW,310,2.0,9.0,59,0.00,,,0.00,0.000000,,2013-02-17 12:42:00,
2013-02-17 05:52:00,33.0,20.0,-100.00,NW,310,2.0,9.0,59,0.00,,,0.00,0.000000,,2013-02-17 12:52:00,
2013-02-17 06:22:00,31.0,20.0,-100.00,NNW,327,2.0,4.0,64,0.00,,,0.00,0.000000,,2013-02-17 13:22:00,
2013-02-17 06:32:00,31.0,20.0,-100.00,NNW,327,2.0,4.0,64,0.00,,,0.00,0.000000,,2013-02-17 13:32:00,
2013-02-17 06:41:00,31.0,20.0,-100.00,NNW,327,2.0,4.0,64,0.00,,,0.00,0.000000,,2013-02-17 13:41:00,
2013-02-17 06:51:00,31.0,20.0,-100.00,NNW,327,2.0,4.0,64,0.00,,,0.00,0.000000,,2013-02-17 13:51:00,
2013-02-17 07:21:00,32.0,20.0,-100.00,NW,322,3.0,5.0,61,0.00,,,0.00,2.000000,,2013-02-17 14:21:00,
2013-02-17 07:32:00,32.0,20.0,-100.00,NW,322,3.0,5.0,61,0.00,,,0.00,2.000000,,2013-02-17 14:32:00,
2013-02-17 07:42:00,32.0,20.0,-100.00,NW,322,3.0,5.0,61,0.00,,,0.00,2.000000,,2013-02-17 14:42:00,
2013-02-17 07:52:00,32.0,20.0,-100.00,NW,322,3.0,5.0,61,0.00,,,0.00,2.000000,,2013-02-17 14:52:00,
2013-02-17 08:21:00,34.0,19.0,-100.00,NW,323,3.0,5.0,54,0.00,,,0.00,29.000000,,2013-02-17 15:21:00,
2013-02-17 08:32:00,34.0,19.0,-100.00,NW,323,3.0,5.0,54,0.00,,,0.00,29.000000,,2013-02-17 15:32:00,
2013-02-17 08:42:00,34.0,19.0,-100.00,NW,323,3.0,5.0,54,0.00,,,0.00,29.000000,,2013-02-17 15:42:00,
2013-02-17 08:52:00,34.0,19.0,-100.00,NW,323,3.0,5.0,54,0.00,,,0.00,29.000000,,2013-02-17 15:52:00,
2013-02-17 09:21:00,38.0,19.0,-100.00,NW,318,3.0,6.0,46,0.00,,,0.00,101.000000,,2013-02-17 16:21:00,
2013-02-17 09:32:00,38.0,19.0,-100.00,NW,318,3.0,6.0,46,0.00,,,0.00,101.000000,,2013-02-17 16:32:00,
2013-02-17 09:42:00,38.0,19.0,-100.00,NW,318,3.0,6.0,46,0.00,,,0.00,101.000000,,2013-02-17 16:42:00,
2013-02-17 09:51:00,38.0,19.0,-100.00,NW,318,3.0,6.0,46,0.00,,,0.00,101.000000,,2013-02-17 16:51:00,
2013-02-17 10:21:00,40.0,18.0,-100.00,West,270,3.0,9.0,41,0.00,,,0.00,153.000000,,2013-02-17 17:21:00,
2013-02-17 10:32:00,40.0,18.0,-100.00,West,270,3.0,9.0,41,0.00,,,0.00,153.000000,,2013-02-17 17:32:00,
2013-02-17 10:42:00,40.0,18.0,-100.00,West,270,3.0,9.0,41,0.00,,,0.00,153.000000,,2013-02-17 17:42:00,
2013-02-17 10:52:00,40.0,18.0,-100.00,West,270,3.0,9.0,41,0.00,,,0.00,153.000000,,2013-02-17 17:52:00,
2013-02-17 11:22:00,41.0,18.0,-100.00,NW,304,3.0,11.0,39,0.00,,,0.00,201.000000,,2013-02-17 18:22:00,
2013-02-17 11:33:00,41.0,18.0,-100.00,NW,304,3.0,11.0,39,0.00,,,0.00,201.000000,,2013-02-17 18:33:00,
2013-02-17 11:42:00,41.0,18.0,-100.00,NW,304,3.0,11.0,39,0.00,,,0.00,201.000000,,2013-02-17 18:42:00,
2013-02-17 11:52:00,41.0,18.0,-100.00,NW,304,3.0,11.0,39,0.00,,,0.00,201.000000,,2013-02-17 18:52:00,
2013-02-17 12:21:00,48.0,18.0,-100.00,WNW,291,6.0,13.0,30,0.00,,,0.00,574.000000,,2013-02-17 19:21:00,
2013-02-17 12:32:00,48.0,18.0,-100.00,WNW,291,6.0,13.0,30,0.00,,,0.00,574.000000,,2013-02-17 19:32:00,
2013-02-17 12:42:00,48.0,18.0,-100.00,WNW,291,6.0,13.0,30,0.00,,,0.00,574.000000,,2013-02-17 19:42:00,
2013-02-17 12:51:00,48.0,18.0,-100.00,WNW,291,6.0,13.0,30,0.00,,,0.00,574.000000,,2013-02-17 19:51:00,
2013-02-17 13:21:00,49.0,19.0,-100.00,West,271,9.0,19.0,30,0.00,,,0.00,656.000000,,2013-02-17 20:21:00,
2013-02-17 13:32:00,49.0,19.0,-100.00,West,271,9.0,19.0,30,0.00,,,0.00,656.000000,,2013-02-17 20:32:00,
2013-02-17 13:42:00,49.0,19.0,-100.00,West,271,9.0,19.0,30,0.00,,,0.00,656.000000,,2013-02-17 20:42:00,
2013-02-17 13:52:00,49.0,19.0,-100.00,West,271,9.0,19.0,30,0.00,,,0.00,656.000000,,2013-02-17 20:52:00,
2013-02-17 14:21:00,47.0,23.0,-100.00,West,276,7.0,20.0,38,0.00,,,0.00,450.000000,,2013-02-17 21:21:00,
2013-02-17 14:32:00,47.0,23.0,-100.00,West,276,7.0,20.0,38,0.00,,,0.00,450.000000,,2013-02-17 21:32:00,
2013-02-17 14:42:00,47.0,23.0,-100.00,West,276,7.0,20.0,38,0.00,,,0.00,450.000000,,2013-02-17 21:42:00,
2013-02-17 14:52:00,47.0,23.0,-100.00,West,276,7.0,20.0,38,0.00,,,0.00,450.000000,,2013-02-17 21:52:00,
2013-02-17 15:22:00,45.0,24.0,-100.00,WNW,300,7.0,18.0,44,0.00,,,0.00,271.000000,,2013-02-17 22:22:00,
2013-02-17 15:32:00,45.0,24.0,-100.00,WNW,300,7.0,18.0,44,0.00,,,0.00,271.000000,,2013-02-17 22:32:00,
2013-02-17 15:42:00,45.0,24.0,-100.00,WNW,300,7.0,18.0,44,0.00,,,0.00,271.000000,,2013-02-17 22:42:00,
2013-02-17 15:52:00,45.0,24.0,-100.00,WNW,300,7.0,18.0,44,0.00,,,0.00,271.000000,,2013-02-17 22:52:00,
2013-02-17 16:21:00,41.0,27.0,-100.00,WNW,298,10.0,20.0,56,0.00,,,0.00,87.000000,,2013-02-17 23:21:00,
2013-02-17 16:32:00,41.0,27.0,-100.00,WNW,298,10.0,20.0,56,0.00,,,0.00,87.000000,,2013-02-17 23:32:00,
2013-02-17 16:42:00,41.0,27.0,-100.00,WNW,298,10.0,20.0,56,0.00,,,0.00,87.000000,,2013-02-17 23:42:00,
2013-02-17 16:52:00,41.0,27.0,-100.00,WNW,298,10.0,20.0,56,0.00,,,0.00,87.000000,,2013-02-17 23:52:00,
2013-02-17 17:22:00,36.0,23.0,-100.00,NW,312,10.0,21.0,58,0.00,,,0.00,63.000000,,2013-02-18 00:22:00,
2013-02-17 17:32:00,36.0,23.0,-100.00,NW,312,10.0,21.0,58,0.00,,,0.00,63.000000,,2013-02-18 00:32:00,
2013-02-17 17:41:00,36.0,23.0,-100.00,NW,312,10.0,21.0,58,0.00,,,0.00,63.000000,,2013-02-18 00:41:00,
2013-02-17 17:52:00,36.0,23.0,-100.00,NW,312,10.0,21.0,58,0.00,,,0.00,63.000000,,2013-02-18 00:52:00,
2013-02-17 18:21:00,33.0,22.0,-100.00,NW,315,6.0,28.0,64,0.00,,,0.00,17.000000,,2013-02-18 01:21:00,
2013-02-17 18:32:00,33.0,22.0,-100.00,NW,315,6.0,28.0,64,0.00,,,0.00,17.000000,,2013-02-18 01:32:00,
2013-02-17 18:41:00,33.0,22.0,-100.00,NW,315,6.0,28.0,64,0.00,,,0.00,17.000000,,2013-02-18 01:41:00,
2013-02-17 18:51:00,33.0,22.0,-100.00,NW,315,6.0,28.0,64,0.00,,,0.00,17.000000,,2013-02-18 01:51:00,
2013-02-17 19:22:00,31.0,24.0,-100.00,WNW,299,7.0,18.0,74,0.00,,,0.00,0.000000,,2013-02-18 02:22:00,
2013-02-17 19:32:00,31.0,24.0,-100.00,WNW,299,7.0,18.0,74,0.00,,,0.00,0.000000,,2013-02-18 02:32:00,
2013-02-17 19:41:00,31.0,24.0,-100.00,WNW,299,7.0,18.0,74,0.00,,,0.00,0.000000,,2013-02-18 02:41:00,
2013-02-17 19:52:00,31.0,24.0,-100.00,WNW,299,7.0,18.0,74,0.00,,,0.00,0.000000,,2013-02-18 02:52:00,
2013-02-17 20:21:00,31.0,24.0,-100.00,NW,306,8.0,17.0,76,0.00,,,0.00,0.000000,,2013-02-18 03:21:00,
2013-02-17 20:32:00,31.0,24.0,-100.00,NW,306,8.0,17.0,76,0.00,,,0.00,0.000000,,2013-02-18 03:32:00,
2013-02-17 20:42:00,31.0,24.0,-100.00,NW,306,8.0,17.0,76,0.00,,,0.00,0.000000,,2013-02-18 03:42:00,
2013-02-17 20:51:00,31.0,24.0,-100.00,NW,306,8.0,17.0,76,0.00,,,0.00,0.000000,,2013-02-18 03:51:00,
2013-02-17 21:21:00,30.0,23.0,-100.00,WNW,302,8.0,18.0,76,0.00,,,0.00,0.000000,,2013-02-18 04:21:00,
2013-02-17 21:32:00,30.0,23.0,-100.00,WNW,302,8.0,18.0,76,0.00,,,0.00,0.000000,,2013-02-18 04:32:00,
2013-02-17 21:41:00,30.0,23.0,-100.00,WNW,302,8.0,18.0,76,0.00,,,0.00,0.000000,,2013-02-18 04:41:00,
2013-02-17 21:51:00,30.0,23.0,-100.00,WNW,302,8.0,18.0,76,0.00,,,0.00,0.000000,,2013-02-18 04:51:00,
2013-02-17 22:21:00,29.0,21.0,-100.00,NW,318,5.0,16.0,71,0.00,,,0.00,0.000000,,2013-02-18 05:21:00,
2013-02-17 22:31:00,29.0,21.0,-100.00,NW,318,5.0,16.0,71,0.00,,,0.00,0.000000,,2013-02-18 05:31:00,
2013-02-17 22:41:00,29.0,21.0,-100.00,NW,318,5.0,16.0,71,0.00,,,0.00,0.000000,,2013-02-18 05:41:00,
2013-02-17 22:52:00,29.0,21.0,-100.00,NW,318,5.0,16.0,71,0.00,,,0.00,0.000000,,2013-02-18 05:52:00,
2013-02-17 23:21:00,28.0,20.0,-100.00,NW,307,7.0,17.0,73,0.00,,,0.00,0.000000,,2013-02-18 06:21:00,
2013-02-17 23:32:00,28.0,20.0,-100.00,NW,307,7.0,17.0,73,0.00,,,0.00,0.000000,,2013-02-18 06:32:00,
2013-02-17 23:42:00,28.0,20.0,-100.00,NW,307,7.0,17.0,73,0.00,,,0.00,0.000000,,2013-02-18 06:42:00,
2013-02-17 23:51:00,28.0,20.0,-100.00,NW,307,7.0,17.0,73,0.00,,,0.00,0.000000,,2013-02-18 06:51:00,